Saturday, November 01, 2014
11:38 UTC
  |  Log In   |  Register Free
Airport Search:

Raton Municipal/Crews Field Airport
(KRTN)

Raton Municipal/Crews Field Airport Diagram
No Airport Diagram Available

FAA data valid effective September 18, 2014 - November 13, 2014 (unless otherwise noted).

 
 
 
 
 
 
 
 
 
 
 
 
 
 

Current Aviation Weather for Raton Municipal/Crews Field Airport (KRTN)

The most recent METAR observation for KRTN was updated at: 1117
METAR Summary (Translated METAR)
KRTN
011053Z AUTO 00000KT 10SM CLR 03/M02 A3019 RMK AO2 SLP190 T00281017
KTAD
011054Z AUTO 25018G24KT 10SM CLR 12/00 A3006 RMK AO2 SLP124 T01170000
(32 nm NE from KRTN)
KAXX
011055Z AUTO 00000KT 10SM BKN028 OVC036 03/00 A3029 RMK AO2 T00321001
(42.6 nm SW from KRTN)
TAF
No TAF information found within 50 nm of KRTN
  Airport Weather Conditions for KRTN

 Current Weather at RTN
37° F
Fair
North winds at 0.0 mph
RTN NOAA Radar

Pressure: 30.19 in
Humidity: 73%
Wind: Calm
Dew Point: 28.9°F
Visibility: 10.00 mi


Airport Weather Forecast for KRTN

Translated METAR and TAF for KRTN
Translated METAR for KRTN (1133 UTC 01 November 2014)
found at http://aviationweather.gov/adds/metars/
 
METAR text: KRTN 011053Z AUTO 00000KT 10SM CLR 03/M02 A3019 RMK AO2 SLP190 T00281017
Conditions at: KRTN (RATON , NM, US) observed 1053 UTC 01 November 2014
Temperature: 2.8°C (37°F)
Dewpoint: -1.7°C (29°F) [RH = 72%]
Pressure (altimeter): 30.19 inches Hg (1022.4 mb)
[Sea-level pressure: 1019.0 mb]
Winds: calm
Visibility: 10 or more miles (16+ km)
Ceiling: at least 12,000 feet AGL
Clouds: sky clear below 12,000 feet AGL
Weather: automated observation with no human augmentation;
there may or may not be significant weather present at this time
Translated TAF for KRTN

There is no translated TAF available for this airport

Find All Airport Services Find A Hotel Find A Rental Car Find A Golf Course Find A Restaurant $100 Hamburger



FBO's on the Field
FBO Company Facility Photos Services Transportation Aviation Fuel Prices: Prices include tax
Catering Weather Repair Courtesy Rental Type 100LL JetA JetA+ MOGAS 8087
 
Pegasus Aviation

This FBO has not yet been rated
FS:Phillips 66
Last Updated: Oct-06
Login to update fuel prices
SS:
Contact Pegasus AviationMore FBO Information
 
Add another FBO Facility Photos Catering Weather Repair Courtesy Rental Type 100LL JetA JetA+ MOGAS 8087
Services Transportation Aviation Fuel Prices: Prices include tax


model-print
model-print
model-print
model-print